Flag for Italy Weather past 2 weeks in Firenze, Italy

Now
86 °F

Passing clouds.


Feels Like: 85 °F
Forecast: 67 / 84 °F
Wind: 7 mph from North

Location: Florence / Peretola

Current Time: Jul 22, 2014 at 5:56:06 PM

Latest Report: Jul 22, 2014 at 5:20 PM


Visibility: N/A

Pressure: 29.71 "Hg

Humidity: 38%

Dew point: 57 °F

Location of FirenzeLocation

Historic Weather in Firenze — Graph

°F

Firenze temperature yesterday

Maximum temperature yesterday: 75 °F (at 7:20 AM)
Minimum temperature yesterday: 64 °F (at 8:20 AM)
Average temperature yesterday: 70 °F

Past Weeks' High & Low Weather Summary

 TemperatureHumidityPressure
High95 °F (Jul 19, 4:20 PM)94% (Jul 8, 12:50 AM)30.07 "Hg (Jul 8, 12:50 AM)
Low59 °F (Jul 9, 10:50 PM)23% (Jul 19, 2:50 PM)29.68 "Hg (Jul 10, 3:50 AM)
Average74 °F65%29.91 "Hg
* Reported Jul 7 4:20 PM — Jul 22 4:20 PM, Firenze, Weather by CustomWeather, © 2014

Note: Actual official high and low records may vary slightly from our data, if they occured in-between our weather recording intervals... More about our weather records

Advertising

Firenze weather history for previous 24 hours

 ConditionsComfort  
Time TempWeatherWind HumidityBarometerVisibility
4:20 PM
Jul 22
86 °FPassing clouds.8 mph40%29.74 "HgN/A
3:50 PM84 °FPassing clouds.8 mph43%29.74 "HgN/A
3:20 PM84 °FPassing clouds.8 mph43%29.74 "HgN/A
2:50 PM82 °FScattered clouds.7 mph45%29.74 "HgN/A
2:20 PM84 °FScattered clouds.6 mph37%29.74 "HgN/A
1:50 PM82 °FScattered clouds.5 mph42%29.74 "HgN/A
1:20 PM82 °FPassing clouds.3 mph42%29.74 "HgN/A
12:50 PM84 °FPassing clouds.2 mph37%29.74 "HgN/A
12:20 PM81 °FPassing clouds.5 mph48%29.77 "HgN/A
11:50 AM81 °FPassing clouds.3 mph45%29.77 "HgN/A
11:20 AM79 °FSunny.3 mph54%29.77 "Hg10 mi
10:50 AM77 °FSunny.2 mph57%29.77 "Hg10 mi
10:20 AM75 °FSunny.2 mph61%29.77 "Hg10 mi
9:50 AM73 °FSunny.2 mph65%29.77 "Hg10 mi
9:20 AM72 °FPassing clouds.3 mph73%29.77 "HgN/A
8:50 AM70 °FPassing clouds.5 mph83%29.77 "HgN/A
8:20 AM68 °FPartly sunny.6 mph88%29.77 "HgN/A
7:50 AM66 °FBroken clouds.2 mph88%29.77 "HgN/A
7:20 AM66 °FBroken clouds.3 mph88%29.77 "HgN/A
6:50 AM64 °FPartly cloudy.1 mph94%29.77 "HgN/A
6:20 AM64 °FLight rain. Partly cloudy.2 mph88%29.77 "HgN/A
5:50 AM64 °FHeavy rain. Partly cloudy.1 mph88%29.77 "Hg4 mi
5:20 AM66 °FPassing clouds.3 mph83%29.77 "HgN/A
4:50 AM64 °FPassing clouds.2 mph94%29.77 "HgN/A
4:20 AM66 °FPassing clouds.2 mph94%29.77 "HgN/A
3:50 AM66 °FLight rain. Passing clouds.5 mph94%29.77 "HgN/A
3:20 AM66 °FLight rain. Passing clouds.3 mph94%29.74 "HgN/A
2:50 AM66 °FPassing clouds.1 mph94%29.74 "HgN/A
2:20 AM66 °FPassing clouds.2 mph88%29.77 "HgN/A
1:50 AM66 °FPassing clouds.3 mph88%29.77 "HgN/A
1:20 AM66 °FPassing clouds.2 mph88%29.77 "HgN/A
12:50 AM68 °FPassing clouds.2 mph83%29.77 "HgN/A
12:20 AM66 °FPassing clouds.5 mph88%29.77 "HgN/A
11:50 PM
Jul 21
66 °FPassing clouds.1 mph94%29.80 "HgN/A
11:20 PM66 °FPassing clouds.2 mph88%29.80 "HgN/A
10:50 PM66 °FPassing clouds.5 mph88%29.80 "HgN/A
10:20 PM66 °FPassing clouds.3 mph88%29.80 "HgN/A
9:50 PM68 °FPassing clouds.2 mph83%29.80 "HgN/A
9:20 PM70 °FScattered clouds.3 mph78%29.80 "HgN/A
8:50 PM70 °FPassing clouds.3 mph78%29.80 "HgN/A
8:20 PM72 °FPassing clouds.6 mph73%29.80 "HgN/A
7:50 PM73 °FPassing clouds.5 mph65%29.80 "HgN/A
7:20 PM73 °FPassing clouds.2 mph65%29.80 "HgN/A
6:50 PM73 °FPassing clouds.3 mph65%29.80 "HgN/A
6:20 PM73 °FPassing clouds.3 mph65%29.80 "HgN/A
5:50 PM73 °FPassing clouds.No wind65%29.80 "HgN/A
5:20 PM73 °FPassing clouds.3 mph65%29.80 "HgN/A
Weather by CustomWeather, © 2014

See weather overviewHow to use our weather pages